Regional Weather Roundup
Issued by NWS

Home | Current Version | Previous Version | Text Only | Print | Product List | Glossary On
Versions: 1 2 3 4 5 6 7 8 9 10 11 12 13 14 15 16 17 18 19 20 21 22 23 24 25 26 27 28 29 30 31 32 33 34 35 36 37 38 39 40 41 42 43 44 45 46 47 48 49 50
000
ASPQ40 PGUM 051110
RWRPQ
WEATHER ROUNDUP FOR THE MARIANAS AND MICRONESIA
NATIONAL WEATHER SERVICE TIYAN GU
900 PM CHST SAT SEP 05 2015

GUZ001>004-051200-
MARIANA ISLANDS-

CITY           SKY/WX    TMP DP  RH WIND       PRES   REMARKS
GUAM AIRPORT   PTCLDY    81  77  89 CALM      29.83R
ANDERSEN AFB   CLEAR     79  77  94 SW2       29.84R
ROTA AIRPORT   NOT AVBL
TINIAN AP      NOT AVBL
SAIPAN AP      MOCLDY    79  77  94 SW3       29.81R

$$

PMZ161-051200-
REPUBLIC OF PALAU-

CITY           SKY/WX    TMP DP  RH WIND       PRES   REMARKS
KOROR AP       CLOUDY    82  75  78 SW9       29.83R
KOROR WSO      CLOUDY    84  75  74 W7        29.87R HX  92

$$

PMZ171>174-051200-
FEDERATED STATES OF MICRONESIA-

CITY           SKY/WX    TMP DP  RH WIND       PRES   REMARKS
YAP AIRPORT    CLOUDY    82  75  78 W10       29.83R
CHUUK AP       PTCLDY    82  79  89 SW8       29.87S HX  93
POHNPEI AP     NOT AVBL
POHNPEI WSO    CLOUDY    81  79  94 SW6       29.88R
KOSRAE AP      NOT AVBL

$$

PMZ181-051200-
REPUBLIC OF THE MARSHALL ISLANDS-

CITY           SKY/WX    TMP DP  RH WIND       PRES   REMARKS
KWAJALEIN AP   MOCLDY    81  73  78 W6        29.83R
MAJURO AP      NOT AVBL
MAJURO WSO     MOCLDY    84  79  84 S16       29.82S HX  96

$$



USA.gov is the U.S. government's official web portal to all federal, state and local government web resources and services.